13-01-2023, 00:00:07,    199,    3.0,    5.1,   0.00,   0.00,  999.9,   73.0, -999.0
13-01-2023, 00:00:17,    246,    4.3,    5.1,   0.00,   0.00,  999.8,   73.1, -999.0
13-01-2023, 00:00:27,    253,    5.9,    5.1,   0.00,   0.00,  999.9,   73.1, -999.0
13-01-2023, 00:00:37,    280,    7.0,    5.1,   0.00,   0.00,  999.8,   73.0, -999.0
13-01-2023, 00:00:47,    231,    3.3,    5.1,   0.00,   0.00,  999.8,   73.0, -999.0
13-01-2023, 00:00:57,    198,    2.5,    5.1,   0.00,   0.00,  999.9,   73.0, -999.0
13-01-2023, 00:01:07,    201,    1.3,    5.1,   0.00,   0.00,  999.8,   73.1, -999.0
13-01-2023, 00:01:17,    203,    0.7,    5.1,   0.00,   0.00,  999.8,   73.1, -999.0
13-01-2023, 00:01:27,    205,    0.4,    5.1,   0.00,   0.00,  999.8,   73.1, -999.0
13-01-2023, 00:01:37,    205,    0.0,    5.0,   0.00,   0.00,  999.7,   73.0, -999.0
13-01-2023, 00:01:47,    204,    0.8,    5.0,   0.00,   0.00,  999.9,   73.4, -999.0
13-01-2023, 00:01:57,    208,    0.7,    5.0,   0.00,   0.00,  999.8,   73.2, -999.0
13-01-2023, 00:02:07,    211,    1.4,    5.1,   0.00,   0.00,  999.8,   73.5, -999.0
13-01-2023, 00:02:16,    205,    6.1,    5.0,   0.00,   0.00,  999.9,   73.4, -999.0
13-01-2023, 00:02:27,    255,    7.0,    5.1,   0.00,   0.00,  999.8,   73.2, -999.0
13-01-2023, 00:02:37,    259,    3.8,    5.1,   0.00,   0.00,  999.8,   73.0, -999.0
13-01-2023, 00:02:47,    228,    1.2,    5.0,   0.00,   0.00,  999.8,   73.0, -999.0
13-01-2023, 00:02:57,    216,    3.3,    5.1,   0.00,   0.00,  999.9,   73.1, -999.0
13-01-2023, 00:03:07,    251,    3.1,    5.1,   0.00,   0.00,  999.8,   73.1, -999.0
13-01-2023, 00:03:17,    236,    1.2,    5.1,   0.00,   0.00,  999.8,   73.2, -999.0
13-01-2023, 00:03:26,    249,    0.4,    5.0,   0.00,   0.00,  999.8,   73.0, -999.0
13-01-2023, 00:03:37,    247,    1.7,    5.1,   0.00,   0.00,  999.9,   73.3, -999.0
13-01-2023, 00:03:47,    222,    4.8,    5.1,   0.00,   0.00,  999.9,   73.3, -999.0
13-01-2023, 00:03:56,    241,    3.9,    5.1,   0.00,   0.00,  999.8,   73.3, -999.0
13-01-2023, 00:04:06,    198,    5.0,    5.1,   0.00,   0.00,  999.9,   73.1, -999.0
13-01-2023, 00:04:17,    209,    4.3,    5.1,   0.00,   0.00,  999.9,   73.2, -999.0
13-01-2023, 00:04:26,    249,    1.6,    5.1,   0.00,   0.00,  999.8,   73.0, -999.0
13-01-2023, 00:04:36,    145,    3.5,    5.1,   0.00,   0.00,  999.8,   73.0, -999.0
13-01-2023, 00:04:46,    234,    2.6,    5.1,   0.00,   0.00,  999.8,   73.0, -999.0
13-01-2023, 00:04:57,    232,    4.0,    5.1,   0.00,   0.00,  999.8,   72.9, -999.0
13-01-2023, 00:05:06,    245,    3.9,    5.2,   0.00,   0.00,  999.9,   72.9, -999.0
13-01-2023, 00:05:16,    220,    1.7,    5.2,   0.00,   0.00,  999.9,   72.8, -999.0
13-01-2023, 00:05:27,    247,    2.6,    5.2,   0.00,   0.00,  999.9,   72.8, -999.0
13-01-2023, 00:05:36,    225,    2.6,    5.1,   0.00,   0.00,  999.9,   72.8, -999.0
13-01-2023, 00:05:46,    226,    2.7,    5.2,   0.00,   0.00,  999.9,   72.7, -999.0
13-01-2023, 00:05:56,    229,    4.1,    5.2,   0.00,   0.00,  999.9,   72.8, -999.0
13-01-2023, 00:06:07,    224,    5.0,    5.2,   0.00,   0.00,  999.9,   72.7, -999.0
13-01-2023, 00:06:16,    210,    3.6,    5.2,   0.00,   0.00,  999.9,   72.6, -999.0
13-01-2023, 00:06:26,    212,    3.7,    5.2,   0.00,   0.00,  999.9,   72.6, -999.0
13-01-2023, 00:06:36,    242,    2.9,    5.2,   0.00,   0.00,  999.9,   72.6, -999.0
13-01-2023, 00:06:46,    226,    4.5,    5.2,   0.00,   0.00,  999.9,   72.6, -999.0
13-01-2023, 00:06:56,    251,    6.2,    5.2,   0.00,   0.00,  999.9,   72.6, -999.0
13-01-2023, 00:07:06,    203,    2.9,    5.3,   0.00,   0.00,  999.9,   72.6, -999.0
13-01-2023, 00:07:16,    207,    0.6,    5.2,   0.00,   0.00,  999.9,   72.5, -999.0
13-01-2023, 00:07:26,    210,    2.5,    5.2,   0.00,   0.00,  999.9,   72.7, -999.0
13-01-2023, 00:07:36,    245,    2.9,    5.2,   0.00,   0.00,  999.8,   72.7, -999.0
13-01-2023, 00:07:46,    221,    2.6,    5.2,   0.00,   0.00,  999.9,   72.6, -999.0
13-01-2023, 00:07:56,    188,    7.2,    5.2,   0.00,   0.00,  999.9,   72.8, -999.0
13-01-2023, 00:08:06,    203,    6.8,    5.3,   0.00,   0.00,  999.9,   72.7, -999.0
13-01-2023, 00:08:16,    256,    7.7,    5.3,   0.00,   0.00,  999.9,   72.7, -999.0
13-01-2023, 00:08:26,    216,    6.5,    5.3,   0.00,   0.00,  999.9,   72.5, -999.0
13-01-2023, 00:08:36,    198,    7.2,    5.3,   0.00,   0.00,  999.8,   72.5, -999.0
13-01-2023, 00:08:46,    232,    4.0,    5.3,   0.00,   0.00,  999.9,   72.4, -999.0
13-01-2023, 00:08:56,    239,    3.4,    5.4,   0.00,   0.00,  999.9,   72.6, -999.0
13-01-2023, 00:09:06,    216,    5.9,    5.3,   0.00,   0.00,  999.9,   72.6, -999.0
13-01-2023, 00:09:16,    257,    7.2,    5.2,   0.00,   0.00,  999.8,   72.6, -999.0
13-01-2023, 00:09:26,    199,    5.2,    5.3,   0.00,   0.00,  999.9,   72.6, -999.0
13-01-2023, 00:09:36,    244,    1.5,    5.4,   0.00,   0.00,  999.8,   72.5, -999.0
13-01-2023, 00:09:46,    203,    2.1,    5.3,   0.00,   0.00,  999.9,   72.9, -999.0
13-01-2023, 00:09:56,    231,    2.8,    5.3,   0.00,   0.00,  999.8,   72.9, -999.0
13-01-2023, 00:10:06,    206,    4.0,    5.3,   0.00,   0.00,  999.9,   73.0, -999.0
13-01-2023, 00:10:16,    235,    6.4,    5.3,   0.00,   0.00,  999.9,   73.1, -999.0
13-01-2023, 00:10:26,    197,    3.1,    5.3,   0.00,   0.00,  999.9,   73.0, -999.0
13-01-2023, 00:10:36,    187,    4.1,    5.1,   0.00,   0.00,  999.8,   73.2, -999.0
13-01-2023, 00:10:46,    200,    4.7,    5.2,   0.00,   0.00,  999.8,   73.3, -999.0
13-01-2023, 00:10:56,    220,    3.2,    5.2,   0.00,   0.00,  999.8,   73.3, -999.0
13-01-2023, 00:11:05,    243,    5.6,    5.3,   0.00,   0.00,  999.9,   73.4, -999.0
13-01-2023, 00:11:16,    213,    1.5,    5.2,   0.00,   0.00,  999.9,   73.4, -999.0
13-01-2023, 00:11:26,    213,    0.0,    5.1,   0.00,   0.00,  999.8,   73.4, -999.0
13-01-2023, 00:11:36,    186,    1.1,    5.1,   0.00,   0.00,  999.8,   73.6, -999.0
13-01-2023, 00:11:45,    237,    2.2,    5.3,   0.00,   0.00,  999.8,   73.9, -999.0
13-01-2023, 00:11:56,    235,    6.5,    5.2,   0.00,   0.00,  999.8,   73.8, -999.0
13-01-2023, 00:12:06,    235,    3.7,    5.3,   0.00,   0.00,  999.9,   73.9, -999.0
13-01-2023, 00:12:15,    234,    4.5,    5.2,   0.00,   0.00,  999.9,   73.9, -999.0
13-01-2023, 00:12:26,    214,    4.2,    5.2,   0.00,   0.00,  999.8,   73.9, -999.0
13-01-2023, 00:12:36,    246,    1.3,    5.1,   0.00,   0.00,  999.8,   73.8, -999.0
13-01-2023, 00:12:45,    235,    3.2,    5.3,   0.00,   0.00,  999.9,   73.9, -999.0
13-01-2023, 00:12:55,    201,    7.3,    5.2,   0.00,   0.00,  999.9,   74.0, -999.0
13-01-2023, 00:13:06,    250,    4.7,    5.3,   0.00,   0.00,  999.9,   74.0, -999.0
13-01-2023, 00:13:16,    218,    6.4,    5.3,   0.00,   0.00,  999.8,   74.1, -999.0
13-01-2023, 00:13:25,    224,    6.7,    5.3,   0.00,   0.00,  999.9,   74.1, -999.0
13-01-2023, 00:13:35,    185,    5.0,    5.4,   0.00,   0.00,  999.8,   74.0, -999.0
13-01-2023, 00:13:46,    236,    7.4,    5.2,   0.00,   0.00,  999.8,   74.1, -999.0
13-01-2023, 00:13:55,    202,    5.9,    5.3,   0.00,   0.00,  999.8,   74.0, -999.0
13-01-2023, 00:14:05,    256,    2.6,    5.4,   0.00,   0.00,  999.8,   74.1, -999.0
13-01-2023, 00:14:15,    280,    2.3,    5.3,   0.00,   0.00,  999.8,   74.2, -999.0
13-01-2023, 00:14:26,    219,    3.4,    5.3,   0.00,   0.00,  999.8,   74.3, -999.0
13-01-2023, 00:14:35,    209,    1.8,    5.3,   0.00,   0.00,  999.8,   74.4, -999.0
13-01-2023, 00:14:45,    223,    6.2,    5.3,   0.00,   0.00,  999.8,   74.5, -999.0
13-01-2023, 00:14:55,    227,    2.6,    5.3,   0.00,   0.00,  999.7,   74.4, -999.0
13-01-2023, 00:15:05,    244,    2.7,    5.3,   0.00,   0.00,  999.8,   74.4, -999.0
13-01-2023, 00:15:15,    249,    4.9,    5.2,   0.00,   0.00,  999.8,   74.5, -999.0
13-01-2023, 00:15:25,    216,    7.0,    5.4,   0.00,   0.00,  999.8,   74.6, -999.0
13-01-2023, 00:15:35,    195,    6.3,    5.3,   0.00,   0.00,  999.7,   74.6, -999.0
13-01-2023, 00:15:45,    216,    3.6,    5.3,   0.00,   0.00,  999.7,   74.5, -999.0
13-01-2023, 00:15:55,    248,    2.7,    5.3,   0.00,   0.00,  999.8,   74.5, -999.0
13-01-2023, 00:16:05,    227,    2.5,    5.3,   0.00,   0.00,  999.7,   74.6, -999.0
13-01-2023, 00:16:15,    235,    4.1,    5.3,   0.00,   0.00,  999.7,   74.7, -999.0
13-01-2023, 00:16:25,    208,    5.3,    5.3,   0.00,   0.00,  999.7,   74.7, -999.0
13-01-2023, 00:16:35,    246,    2.7,    5.3,   0.00,   0.00,  999.8,   74.7, -999.0
13-01-2023, 00:16:45,    235,    8.0,    5.3,   0.00,   0.00,  999.8,   74.7, -999.0
13-01-2023, 00:16:55,    250,    5.8,    5.3,   0.00,   0.00,  999.8,   74.5, -999.0
13-01-2023, 00:17:05,    203,    2.7,    5.3,   0.00,   0.00,  999.7,   74.4, -999.0
13-01-2023, 00:17:15,    226,    4.9,    5.3,   0.00,   0.00,  999.6,   74.5, -999.0
13-01-2023, 00:17:25,    167,    3.4,    5.3,   0.00,   0.00,  999.7,   74.6, -999.0
13-01-2023, 00:17:35,    230,    1.6,    5.3,   0.00,   0.00,  999.7,   74.5, -999.0
13-01-2023, 00:17:45,    235,    2.0,    5.3,   0.00,   0.00,  999.7,   74.6, -999.0
13-01-2023, 00:17:55,    274,    2.3,    5.2,   0.00,   0.00,  999.7,   74.6, -999.0
13-01-2023, 00:18:05,    217,    3.7,    5.3,   0.00,   0.00,  999.7,   74.7, -999.0
13-01-2023, 00:18:15,    196,    1.5,    5.3,   0.00,   0.00,  999.8,   74.7, -999.0
13-01-2023, 00:18:25,    200,    0.3,    5.2,   0.00,   0.00,  999.7,   74.6, -999.0
13-01-2023, 00:18:35,    213,    0.1,    5.2,   0.00,   0.00,  999.7,   74.7, -999.0
13-01-2023, 00:18:45,    195,    1.4,    5.3,   0.00,   0.00,  999.7,   74.9, -999.0
13-01-2023, 00:18:55,    192,    3.3,    5.3,   0.00,   0.00,  999.7,   75.0, -999.0
13-01-2023, 00:19:05,    185,    1.9,    5.3,   0.00,   0.00,  999.7,   75.0, -999.0
13-01-2023, 00:19:15,    208,    1.5,    5.2,   0.00,   0.00,  999.7,   74.9, -999.0
13-01-2023, 00:19:25,    251,    5.5,    5.2,   0.00,   0.00,  999.7,   74.9, -999.0
13-01-2023, 00:19:35,    234,    4.7,    5.3,   0.00,   0.00,  999.7,   74.7, -999.0
13-01-2023, 00:19:45,    201,    6.8,    5.3,   0.00,   0.00,  999.7,   74.6, -999.0
13-01-2023, 00:19:55,    267,    4.1,    5.4,   0.00,   0.00,  999.7,   74.4, -999.0
13-01-2023, 00:20:05,    223,    5.0,    5.4,   0.00,   0.00,  999.7,   74.5, -999.0
13-01-2023, 00:20:15,    233,    4.6,    5.4,   0.00,   0.00,  999.6,   74.4, -999.0
13-01-2023, 00:20:25,    246,    5.5,    5.3,   0.00,   0.00,  999.7,   74.1, -999.0
13-01-2023, 00:20:35,    232,    4.3,    5.3,   0.00,   0.00,  999.6,   74.1, -999.0
13-01-2023, 00:20:44,    207,    2.8,    5.4,   0.00,   0.00,  999.8,   74.3, -999.0
13-01-2023, 00:20:55,    221,    3.1,    5.3,   0.00,   0.00,  999.7,   74.4, -999.0
13-01-2023, 00:21:05,    283,    4.0,    5.3,   0.00,   0.00,  999.7,   74.2, -999.0
13-01-2023, 00:21:14,    197,    5.6,    5.4,   0.00,   0.00,  999.6,   74.0, -999.0
13-01-2023, 00:21:24,    147,    2.3,    5.3,   0.00,   0.00,  999.6,   73.9, -999.0
13-01-2023, 00:21:35,    201,    0.9,    5.3,   0.00,   0.00,  999.6,   73.9, -999.0
13-01-2023, 00:21:45,    252,    1.3,    5.4,   0.00,   0.00,  999.7,   74.1, -999.0
13-01-2023, 00:21:54,    233,    4.4,    5.4,   0.00,   0.00,  999.8,   74.1, -999.0
13-01-2023, 00:22:04,    243,    6.9,    5.3,   0.00,   0.00,  999.8,   74.1, -999.0
13-01-2023, 00:22:15,    225,    6.7,    5.3,   0.00,   0.00,  999.8,   74.0, -999.0
13-01-2023, 00:22:24,    190,    5.6,    5.4,   0.00,   0.00,  999.8,   74.1, -999.0
13-01-2023, 00:22:34,    213,    1.8,    5.3,   0.00,   0.00,  999.7,   74.0, -999.0
13-01-2023, 00:22:44,    193,    3.1,    5.4,   0.00,   0.00,  999.7,   74.0, -999.0
13-01-2023, 00:22:54,    236,    2.4,    5.3,   0.00,   0.00,  999.7,   74.0, -999.0
13-01-2023, 00:23:04,    193,    5.2,    5.3,   0.00,   0.00,  999.7,   74.1, -999.0
13-01-2023, 00:23:14,    251,    1.8,    5.3,   0.00,   0.00,  999.8,   74.0, -999.0
13-01-2023, 00:23:25,    253,    4.3,    5.4,   0.00,   0.00,  999.8,   74.4, -999.0
13-01-2023, 00:23:34,    235,    3.7,    5.4,   0.00,   0.00,  999.8,   74.3, -999.0
13-01-2023, 00:23:44,    236,    4.7,    5.3,   0.00,   0.00,  999.9,   74.3, -999.0
13-01-2023, 00:23:54,    214,    3.5,    5.3,   0.00,   0.00,  999.9,   74.3, -999.0
13-01-2023, 00:24:04,    176,    4.4,    5.4,   0.00,   0.00,  999.8,   74.3, -999.0
13-01-2023, 00:24:14,    301,    3.8,    5.4,   0.00,   0.00,  999.9,   74.3, -999.0
13-01-2023, 00:24:24,    228,    3.1,    5.3,   0.00,   0.01,  999.9,   74.4, -999.0
13-01-2023, 00:24:34,    253,    6.0,    5.3,   0.00,   0.01,  999.9,   74.3, -999.0
13-01-2023, 00:24:44,    194,    6.3,    5.3,   0.00,   0.00, 1000.0,   74.3, -999.0
13-01-2023, 00:24:54,    177,    6.6,    5.3,   0.00,   0.00,  999.8,   74.3, -999.0
13-01-2023, 00:25:04,    233,    2.1,    5.4,   0.00,   0.01,  999.8,   73.9, -999.0
13-01-2023, 00:25:14,    251,    3.8,    5.4,   0.00,   0.00,  999.8,   73.9, -999.0
13-01-2023, 00:25:24,    268,    2.9,    5.4,   0.00,   0.01,  999.8,   74.0, -999.0
13-01-2023, 00:25:34,    234,    6.8,    5.3,   0.00,   0.00,  999.8,   74.1, -999.0
13-01-2023, 00:25:44,    242,    4.8,    5.3,   0.00,   0.01,  999.8,   74.3, -999.0
13-01-2023, 00:25:54,    265,    4.1,    5.3,   0.00,   0.01,  999.9,   74.6, -999.0
13-01-2023, 00:26:04,    189,    3.6,    5.3,   0.00,   0.01,  999.7,   74.9, -999.0
13-01-2023, 00:26:14,    195,    1.2,    5.2,   0.00,   0.02,  999.7,   74.8, -999.0
13-01-2023, 00:26:24,    171,    3.7,    5.2,   0.00,   0.02,  999.7,   75.0, -999.0
13-01-2023, 00:26:34,    247,    1.7,    5.2,   0.00,   0.01,  999.7,   75.5, -999.0
13-01-2023, 00:26:44,    189,    5.4,    5.1,   0.00,   0.01,  999.7,   75.9, -999.0
13-01-2023, 00:26:54,    210,    8.1,    5.1,   0.00,   0.00,  999.5,   76.1, -999.0
13-01-2023, 00:27:04,    251,    6.2,    5.0,   0.00,   0.01,  999.7,   76.0, -999.0
13-01-2023, 00:27:14,    257,    9.7,    5.0,   0.00,   0.00,  999.7,   75.7, -999.0
13-01-2023, 00:27:24,    242,    6.5,    5.0,   0.00,   0.00,  999.7,   75.3, -999.0
13-01-2023, 00:27:34,    218,    3.7,    5.1,   0.00,   0.00,  999.8,   75.4, -999.0
13-01-2023, 00:27:44,    227,    7.7,    5.0,   0.00,   0.00,  999.8,   75.5, -999.0
13-01-2023, 00:27:54,    231,    7.7,    5.0,   0.00,   0.01,  999.7,   75.5, -999.0
13-01-2023, 00:28:04,    203,    7.9,    4.9,   0.00,   0.00,  999.7,   75.6, -999.0
13-01-2023, 00:28:14,    233,    6.6,    5.0,   0.00,   0.00,  999.7,   75.5, -999.0
13-01-2023, 00:28:24,    319,    5.2,    4.9,   0.00,   0.00,  999.6,   75.8, -999.0
13-01-2023, 00:28:34,     58,    2.1,    5.0,   0.00,   0.00,  999.6,   75.9, -999.0
13-01-2023, 00:28:44,    298,    2.2,    4.9,   0.00,   0.00,  999.8,   76.2, -999.0
13-01-2023, 00:28:54,    252,    1.5,    4.9,   0.00,   0.00,  999.8,   76.4, -999.0
13-01-2023, 00:29:03,    250,    3.7,    5.0,   0.00,   0.00,  999.8,   76.7, -999.0
13-01-2023, 00:29:14,    275,    2.4,    4.9,   0.00,   0.00,  999.9,   77.1, -999.0
13-01-2023, 00:29:24,    271,    1.9,    4.9,   0.00,   0.01,  999.9,   77.5, -999.0
13-01-2023, 00:29:33,    185,    4.3,    4.9,   0.00,   0.00, 1000.0,   77.8, -999.0
13-01-2023, 00:29:44,    247,    4.9,    4.8,   0.00,   0.00,  999.9,   77.9, -999.0
13-01-2023, 00:29:54,    237,    5.0,    4.9,   0.00,   0.00,  999.8,   77.8, -999.0
13-01-2023, 00:30:04,    251,    4.4,    4.9,   0.00,   0.00,  999.8,   77.6, -999.0
13-01-2023, 00:30:13,    248,    4.7,    4.9,   0.00,   0.01,  999.8,   77.7, -999.0
13-01-2023, 00:30:24,    253,    7.9,    4.9,   0.00,   0.00,  999.8,   77.9, -999.0
13-01-2023, 00:30:34,    281,    5.0,    4.9,   0.00,   0.00,  999.9,   78.0, -999.0
13-01-2023, 00:30:43,    274,    6.3,    4.9,   0.00,   0.00,  999.8,   78.1, -999.0
13-01-2023, 00:30:53,    292,    6.1,    4.9,   0.00,   0.00,  999.8,   78.1, -999.0
13-01-2023, 00:31:04,    186,    3.7,    4.8,   0.00,   0.00,  999.8,   78.2, -999.0
13-01-2023, 00:31:13,    275,    1.4,    4.8,   0.00,   0.00,  999.8,   78.2, -999.0
13-01-2023, 00:31:23,    256,    1.3,    4.8,   0.00,   0.00,  999.8,   78.4, -999.0
13-01-2023, 00:31:33,    221,    4.9,    4.8,   0.00,   0.00,  999.8,   78.7, -999.0
13-01-2023, 00:31:44,    250,    2.4,    4.8,   0.00,   0.00,  999.8,   78.8, -999.0
13-01-2023, 00:31:53,    242,    2.0,    4.8,   0.00,   0.00,  999.8,   78.9, -999.0
13-01-2023, 00:32:03,    243,    3.0,    4.8,   0.00,   0.00,  999.8,   79.2, -999.0
13-01-2023, 00:32:13,    223,    6.2,    4.8,   0.00,   0.00,  999.8,   79.4, -999.0
13-01-2023, 00:32:23,    233,    3.9,    4.7,   0.00,   0.00,  999.8,   79.6, -999.0
13-01-2023, 00:32:33,    241,    3.9,    4.7,   0.00,   0.01,  999.8,   79.9, -999.0
13-01-2023, 00:32:43,    227,    5.0,    4.7,   0.00,   0.00,  999.8,   79.9, -999.0
13-01-2023, 00:32:53,    279,    4.7,    4.7,   0.00,   0.00,  999.8,   79.9, -999.0
13-01-2023, 00:33:03,    217,    4.7,    4.7,   0.00,   0.00,  999.7,   80.0, -999.0
13-01-2023, 00:33:13,    252,    5.3,    4.7,   0.00,   0.00,  999.7,   80.2, -999.0
13-01-2023, 00:33:23,    253,    6.4,    4.7,   0.00,   0.00,  999.8,   80.4, -999.0
13-01-2023, 00:33:33,    216,    3.4,    4.6,   0.00,   0.00,  999.7,   80.4, -999.0
13-01-2023, 00:33:43,    218,    3.9,    4.7,   0.00,   0.00,  999.7,   80.7, -999.0
13-01-2023, 00:33:53,    259,    3.6,    4.7,   0.00,   0.00,  999.7,   80.9, -999.0
13-01-2023, 00:34:03,    249,    1.1,    4.7,   0.00,   0.00,  999.7,   81.2, -999.0
13-01-2023, 00:34:13,    218,    2.6,    4.7,   0.00,   0.00,  999.7,   81.4, -999.0
13-01-2023, 00:34:23,    231,    4.0,    4.7,   0.00,   0.00,  999.7,   81.6, -999.0
13-01-2023, 00:34:33,    255,    7.3,    4.6,   0.00,   0.00,  999.8,   81.9, -999.0
13-01-2023, 00:34:43,    246,    3.9,    4.7,   0.00,   0.00,  999.7,   81.8, -999.0
13-01-2023, 00:34:53,    231,    3.4,    4.6,   0.00,   0.00,  999.8,   81.8, -999.0
13-01-2023, 00:35:03,    218,    7.0,    4.6,   0.00,   0.00,  999.8,   81.8, -999.0
13-01-2023, 00:35:13,    246,    5.5,    4.6,   0.00,   0.00,  999.8,   81.8, -999.0
13-01-2023, 00:35:23,    240,    5.3,    4.6,   0.00,   0.00,  999.8,   81.8, -999.0
13-01-2023, 00:35:33,    247,    2.6,    4.6,   0.00,   0.00,  999.8,   81.8, -999.0
13-01-2023, 00:35:43,    258,    4.4,    4.6,   0.00,   0.00,  999.8,   81.8, -999.0
13-01-2023, 00:35:53,    230,    4.2,    4.7,   0.00,   0.00,  999.8,   81.9, -999.0
13-01-2023, 00:36:03,    266,    1.7,    4.7,   0.00,   0.00,  999.8,   82.0, -999.0
13-01-2023, 00:36:13,    176,    1.7,    4.6,   0.00,   0.00,  999.8,   82.0, -999.0
13-01-2023, 00:36:23,    218,    5.4,    4.6,   0.00,   0.00,  999.8,   82.1, -999.0
13-01-2023, 00:36:33,    211,    1.7,    4.6,   0.00,   0.00,  999.8,   82.1, -999.0
13-01-2023, 00:36:43,    249,    2.4,    4.6,   0.00,   0.00,  999.8,   82.1, -999.0
13-01-2023, 00:36:53,    228,    2.5,    4.7,   0.00,   0.00,  999.8,   82.1, -999.0
13-01-2023, 00:37:03,    234,    5.1,    4.7,   0.00,   0.00,  999.8,   82.0, -999.0
13-01-2023, 00:37:13,    247,    6.4,    4.7,   0.00,   0.00,  999.8,   81.9, -999.0
13-01-2023, 00:37:23,    264,    6.2,    4.7,   0.00,   0.00,  999.8,   81.8, -999.0
13-01-2023, 00:37:33,    266,    5.6,    4.7,   0.00,   0.00,  999.8,   81.6, -999.0
13-01-2023, 00:37:43,    238,    3.2,    4.7,   0.00,   0.00,  999.7,   81.6, -999.0
13-01-2023, 00:37:52,    256,    6.3,    4.7,   0.00,   0.00,  999.7,   81.5, -999.0
13-01-2023, 00:38:03,    239,    5.7,    4.7,   0.00,   0.00,  999.8,   81.3, -999.0
13-01-2023, 00:38:13,    230,    6.4,    4.8,   0.00,   0.00,  999.7,   81.1, -999.0
13-01-2023, 00:38:23,    250,    6.7,    4.8,   0.00,   0.00,  999.7,   80.8, -999.0
13-01-2023, 00:38:33,    208,    2.8,    4.9,   0.00,   0.00,  999.7,   80.4, -999.0
13-01-2023, 00:38:43,    244,    1.2,    4.8,   0.00,   0.00,  999.7,   80.4, -999.0
13-01-2023, 00:38:53,    210,    2.6,    4.8,   0.00,   0.00,  999.7,   80.3, -999.0
13-01-2023, 00:39:02,    214,    2.6,    4.8,   0.00,   0.00,  999.7,   80.3, -999.0
13-01-2023, 00:39:13,    156,    3.2,    4.9,   0.00,   0.00,  999.7,   80.4, -999.0
13-01-2023, 00:39:23,    219,    2.4,    4.9,   0.00,   0.00,  999.7,   80.4, -999.0
13-01-2023, 00:39:32,    203,    3.3,    4.8,   0.00,   0.01,  999.6,   80.4, -999.0
13-01-2023, 00:39:42,    216,    3.2,    4.8,   0.00,   0.00,  999.7,   80.4, -999.0
13-01-2023, 00:39:53,    223,    2.9,    4.9,   0.00,   0.00,  999.7,   80.4, -999.0
13-01-2023, 00:40:03,    186,    3.0,    4.9,   0.00,   0.00,  999.7,   80.4, -999.0
13-01-2023, 00:40:12,    213,    1.2,    4.9,   0.00,   0.00,  999.7,   80.3, -999.0
13-01-2023, 00:40:22,    255,    2.7,    4.9,   0.00,   0.00,  999.7,   80.4, -999.0
13-01-2023, 00:40:33,    199,    2.6,    4.9,   0.00,   0.00,  999.6,   80.3, -999.0
13-01-2023, 00:40:42,    273,    3.2,    4.9,   0.00,   0.00,  999.7,   80.3, -999.0
13-01-2023, 00:40:52,    229,    5.4,    4.9,   0.00,   0.00,  999.8,   80.3, -999.0
13-01-2023, 00:41:02,    216,    8.5,    4.9,   0.00,   0.00,  999.7,   80.2, -999.0
13-01-2023, 00:41:12,    249,    6.2,    5.0,   0.00,   0.00,  999.8,   79.7, -999.0
13-01-2023, 00:41:22,    171,    4.6,    5.0,   0.00,   0.00,  999.7,   79.5, -999.0
13-01-2023, 00:41:32,    213,    1.5,    5.1,   0.00,   0.00,  999.7,   79.3, -999.0
13-01-2023, 00:41:42,    203,    5.3,    5.0,   0.00,   0.00,  999.7,   79.1, -999.0
13-01-2023, 00:41:52,    206,    1.5,    5.0,   0.00,   0.00,  999.7,   79.0, -999.0
13-01-2023, 00:42:02,    211,    2.0,    5.0,   0.00,   0.00,  999.7,   79.0, -999.0
13-01-2023, 00:42:12,    215,    1.2,    5.0,   0.00,   0.00,  999.7,   79.0, -999.0
13-01-2023, 00:42:22,    235,    1.8,    5.0,   0.00,   0.00,  999.7,   78.9, -999.0
13-01-2023, 00:42:32,    211,    2.1,    4.9,   0.00,   0.00,  999.7,   78.9, -999.0
13-01-2023, 00:42:42,    247,    6.5,    5.0,   0.00,   0.00,  999.8,   78.9, -999.0
13-01-2023, 00:42:52,    196,    2.7,    5.1,   0.00,   0.00,  999.7,   78.8, -999.0
13-01-2023, 00:43:02,    203,    2.1,    5.1,   0.00,   0.00,  999.7,   78.7, -999.0
13-01-2023, 00:43:12,    210,    0.6,    5.1,   0.00,   0.00,  999.7,   78.5, -999.0
13-01-2023, 00:43:22,    189,    0.1,    5.0,   0.00,   0.00,  999.7,   78.2, -999.0
13-01-2023, 00:43:32,    220,    3.7,    5.0,   0.00,   0.00,  999.7,   78.5, -999.0
13-01-2023, 00:43:42,    245,    3.6,    5.0,   0.00,   0.00,  999.7,   78.4, -999.0
13-01-2023, 00:43:52,    245,    2.1,    5.1,   0.00,   0.00,  999.7,   78.5, -999.0
13-01-2023, 00:44:02,    219,    2.3,    5.1,   0.00,   0.00,  999.7,   78.5, -999.0
13-01-2023, 00:44:12,    221,    1.0,    5.0,   0.00,   0.00,  999.6,   78.4, -999.0
13-01-2023, 00:44:22,    242,    0.3,    5.0,   0.00,   0.00,  999.6,   78.3, -999.0
13-01-2023, 00:44:32,    281,    2.9,    5.0,   0.00,   0.00,  999.7,   78.6, -999.0
13-01-2023, 00:44:42,    200,    3.0,    5.0,   0.00,   0.00,  999.7,   78.6, -999.0
13-01-2023, 00:44:52,    229,    1.8,    5.0,   0.00,   0.00,  999.7,   78.7, -999.0
13-01-2023, 00:45:02,    186,    1.0,    5.0,   0.00,   0.00,  999.6,   78.7, -999.0
13-01-2023, 00:45:12,    234,    2.5,    5.0,   0.00,   0.00,  999.7,   78.7, -999.0
13-01-2023, 00:45:22,    223,    3.9,    5.0,   0.00,   0.00,  999.7,   78.6, -999.0
13-01-2023, 00:45:32,    245,    1.5,    4.9,   0.00,   0.00,  999.7,   78.7, -999.0
13-01-2023, 00:45:42,    227,    0.8,    4.9,   0.00,   0.00,  999.7,   78.7, -999.0
13-01-2023, 00:45:52,    230,    0.4,    5.0,   0.00,   0.00,  999.7,   78.5, -999.0
13-01-2023, 00:46:02,    239,    0.7,    5.0,   0.00,   0.00,  999.8,   78.7, -999.0
13-01-2023, 00:46:12,    239,    0.1,    4.9,   0.00,   0.00,  999.7,   78.6, -999.0
13-01-2023, 00:46:22,    230,    0.3,    4.9,   0.00,   0.00,  999.7,   78.6, -999.0
13-01-2023, 00:46:32,    257,    4.1,    4.9,   0.00,   0.00,  999.8,   78.8, -999.0
13-01-2023, 00:46:42,    194,    2.4,    5.0,   0.00,   0.00,  999.8,   78.9, -999.0
13-01-2023, 00:46:52,    260,    2.2,    5.0,   0.00,   0.00,  999.7,   78.8, -999.0